Location: Buchdorf
(48.7842°N, 10.8275°E)
Time: 01:40:44
(UTC+00:00)

SJ-6B - Pass Details

Date: 09 April 2020
Orbit: 509 x 582 km, 97.6° (Epoch: 24 May)

Event Time Altitude Azimuth Distance (km) Brightness Sun altitude
Rises 18:38:50 0° 156° (SSE) 2,789 6.0 -6.9°
Reaches altitude 10° 18:40:59 10° 154° (SSE) 1,897 5.1 -7.3°
Maximum altitude 18:45:04 63° 73° (ENE) 656 3.0 -7.9°
Drops below altitude 10° 18:49:10 10° 353° (N) 1,911 6.0 -8.5°
Sets 18:51:21 0° 350° (N) 2,810 6.9 -8.9°
